Time,TemperatureF,DewpointF,PressureIn,WindDirection,WindDirectionDegrees,WindSpeedMPH,WindSpeedGustMPH,Humidity,HourlyPrecipIn,Conditions,Clouds,dailyrainin,SoftwareType,DateUTC
2013-02-13 00:02:00,32.0,23.0,29.79,West,267,0.0,-999.0,70,-99.99,,,-99.99,,2013-02-13 05:02:00,
2013-02-13 00:12:00,32.0,23.0,29.79,West,265,0.0,-999.0,70,-99.99,,,-99.99,,2013-02-13 05:12:00,
2013-02-13 00:22:00,32.0,23.0,29.79,West,265,0.0,-999.0,70,-99.99,,,-99.99,,2013-02-13 05:22:00,
2013-02-13 00:32:00,32.0,23.0,29.80,West,265,0.0,-999.0,70,-99.99,,,-99.99,,2013-02-13 05:32:00,
2013-02-13 00:42:00,32.0,23.0,29.80,West,265,0.0,-999.0,70,-99.99,,,-99.99,,2013-02-13 05:42:00,
2013-02-13 00:52:00,31.0,23.0,29.80,West,265,0.0,-999.0,71,-99.99,,,-99.99,,2013-02-13 05:52:00,
2013-02-13 01:02:00,31.0,23.0,29.80,West,265,0.0,-999.0,72,-99.99,,,-99.99,,2013-02-13 06:02:00,
2013-02-13 01:11:00,30.0,22.0,29.80,West,265,0.0,-999.0,73,-99.99,,,-99.99,,2013-02-13 06:11:00,
2013-02-13 01:21:00,30.0,22.0,29.80,West,265,0.0,-999.0,73,-99.99,,,-99.99,,2013-02-13 06:21:00,
2013-02-13 01:32:00,30.0,23.0,29.79,West,265,0.0,-999.0,75,-99.99,,,-99.99,,2013-02-13 06:32:00,
2013-02-13 01:42:00,29.0,22.0,29.79,West,265,0.0,-999.0,74,-99.99,,,-99.99,,2013-02-13 06:42:00,
2013-02-13 01:51:00,29.0,22.0,29.79,West,265,0.0,-999.0,74,-99.99,,,-99.99,,2013-02-13 06:51:00,
2013-02-13 02:02:00,29.0,22.0,29.78,West,265,0.0,-999.0,74,-99.99,,,-99.99,,2013-02-13 07:02:00,
2013-02-13 02:11:00,29.0,22.0,29.78,West,265,0.0,-999.0,75,-99.99,,,-99.99,,2013-02-13 07:11:00,
2013-02-13 02:22:00,29.0,22.0,29.78,West,265,0.0,-999.0,75,-99.99,,,-99.99,,2013-02-13 07:22:00,
2013-02-13 02:32:00,28.0,21.0,29.78,West,265,0.0,-999.0,76,-99.99,,,-99.99,,2013-02-13 07:32:00,
2013-02-13 02:42:00,28.0,21.0,29.78,West,265,0.0,-999.0,76,-99.99,,,-99.99,,2013-02-13 07:42:00,
2013-02-13 02:51:00,28.0,21.0,29.79,West,265,0.0,-999.0,76,-99.99,,,-99.99,,2013-02-13 07:51:00,
2013-02-13 03:01:00,29.0,22.0,29.79,WSW,240,1.0,-999.0,76,-99.99,,,-99.99,,2013-02-13 08:01:00,
2013-02-13 03:11:00,29.0,22.0,29.79,WSW,240,1.0,-999.0,76,-99.99,,,-99.99,,2013-02-13 08:11:00,
2013-02-13 03:21:00,29.0,22.0,29.79,SW,223,1.0,-999.0,74,-99.99,,,-99.99,,2013-02-13 08:21:00,
2013-02-13 03:32:00,29.0,21.0,29.79,SW,234,1.0,-999.0,73,-99.99,,,-99.99,,2013-02-13 08:32:00,
2013-02-13 03:43:00,29.0,21.0,29.79,SW,234,1.0,-999.0,73,-99.99,,,-99.99,,2013-02-13 08:43:00,
2013-02-13 03:52:00,29.0,21.0,29.79,SW,235,1.0,-999.0,73,-99.99,,,-99.99,,2013-02-13 08:52:00,
2013-02-13 04:02:00,29.0,21.0,29.80,SW,236,0.0,-999.0,72,-99.99,,,-99.99,,2013-02-13 09:02:00,
2013-02-13 04:11:00,29.0,21.0,29.80,SW,236,0.0,-999.0,72,-99.99,,,-99.99,,2013-02-13 09:11:00,
2013-02-13 04:21:00,29.0,21.0,29.80,SW,226,1.0,-999.0,73,-99.99,,,-99.99,,2013-02-13 09:21:00,
2013-02-13 04:32:00,29.0,21.0,29.80,WSW,245,0.0,-999.0,73,-99.99,,,-99.99,,2013-02-13 09:32:00,
2013-02-13 04:42:00,28.0,21.0,29.81,WSW,247,0.0,-999.0,74,-99.99,,,-99.99,,2013-02-13 09:42:00,
2013-02-13 04:51:00,28.0,21.0,29.81,WSW,247,0.0,-999.0,74,-99.99,,,-99.99,,2013-02-13 09:51:00,
2013-02-13 05:01:00,29.0,22.0,29.81,WSW,244,1.0,-999.0,74,-99.99,,,-99.99,,2013-02-13 10:01:00,
2013-02-13 05:11:00,29.0,22.0,29.81,WSW,245,0.0,-999.0,74,-99.99,,,-99.99,,2013-02-13 10:11:00,
2013-02-13 05:21:00,29.0,22.0,29.81,WSW,245,0.0,-999.0,74,-99.99,,,-99.99,,2013-02-13 10:21:00,
2013-02-13 05:32:00,28.0,21.0,29.81,WSW,245,0.0,-999.0,74,-99.99,,,-99.99,,2013-02-13 10:32:00,
2013-02-13 05:42:00,28.0,21.0,29.82,WSW,245,0.0,-999.0,74,-99.99,,,-99.99,,2013-02-13 10:42:00,
2013-02-13 05:51:00,28.0,21.0,29.82,WSW,245,0.0,-999.0,74,-99.99,,,-99.99,,2013-02-13 10:51:00,
2013-02-13 06:01:00,28.0,21.0,29.81,WSW,245,0.0,-999.0,75,-99.99,,,-99.99,,2013-02-13 11:01:00,
2013-02-13 06:11:00,28.0,21.0,29.81,WSW,245,0.0,-999.0,75,-99.99,,,-99.99,,2013-02-13 11:11:00,
2013-02-13 06:22:00,28.0,21.0,29.81,WSW,245,0.0,-999.0,75,-99.99,,,-99.99,,2013-02-13 11:22:00,
2013-02-13 06:32:00,27.0,20.0,29.81,WSW,245,0.0,-999.0,76,-99.99,,,-99.99,,2013-02-13 11:32:00,
2013-02-13 06:42:00,27.0,21.0,29.81,WSW,245,0.0,-999.0,77,-99.99,,,-99.99,,2013-02-13 11:42:00,
2013-02-13 06:52:00,27.0,21.0,29.81,WSW,245,0.0,-999.0,77,-99.99,,,-99.99,,2013-02-13 11:52:00,
2013-02-13 07:02:00,26.0,20.0,29.81,WSW,245,0.0,-999.0,78,-99.99,,,-99.99,,2013-02-13 12:02:00,
2013-02-13 07:11:00,26.0,20.0,29.82,WSW,245,0.0,-999.0,79,-99.99,,,-99.99,,2013-02-13 12:11:00,
2013-02-13 07:22:00,26.0,20.0,29.82,WSW,245,0.0,-999.0,79,-99.99,,,-99.99,,2013-02-13 12:22:00,
2013-02-13 07:32:00,25.0,20.0,29.82,WSW,245,0.0,-999.0,80,-99.99,,,-99.99,,2013-02-13 12:32:00,
2013-02-13 07:42:00,25.0,20.0,29.82,WSW,245,0.0,-999.0,80,-99.99,,,-99.99,,2013-02-13 12:42:00,
2013-02-13 07:52:00,25.0,20.0,29.82,WSW,245,0.0,-999.0,80,-99.99,,,-99.99,,2013-02-13 12:52:00,
2013-02-13 08:02:00,26.0,21.0,29.82,WSW,245,0.0,-999.0,81,-99.99,,,-99.99,,2013-02-13 13:02:00,
2013-02-13 08:11:00,27.0,22.0,29.82,WSW,245,0.0,-999.0,80,-99.99,,,-99.99,,2013-02-13 13:11:00,
2013-02-13 08:21:00,27.0,22.0,29.82,WSW,245,0.0,-999.0,80,-99.99,,,-99.99,,2013-02-13 13:21:00,
2013-02-13 08:32:00,28.0,22.0,29.82,WSW,244,0.0,-999.0,77,-99.99,,,-99.99,,2013-02-13 13:32:00,
2013-02-13 08:42:00,30.0,23.0,29.82,WSW,248,0.0,-999.0,74,-99.99,,,-99.99,,2013-02-13 13:42:00,
2013-02-13 08:51:00,30.0,23.0,29.82,WSW,248,0.0,-999.0,74,-99.99,,,-99.99,,2013-02-13 13:51:00,
2013-02-13 09:01:00,32.0,23.0,29.82,WSW,247,2.0,-999.0,70,-99.99,,,-99.99,,2013-02-13 14:01:00,
2013-02-13 09:11:00,32.0,23.0,29.82,WSW,247,2.0,-999.0,70,-99.99,,,-99.99,,2013-02-13 14:11:00,
2013-02-13 09:21:00,33.0,23.0,29.82,West,267,1.0,-999.0,67,-99.99,,,-99.99,,2013-02-13 14:21:00,
2013-02-13 09:32:00,35.0,24.0,29.82,West,265,2.0,-999.0,63,-99.99,,,-99.99,,2013-02-13 14:32:00,
2013-02-13 09:42:00,36.0,24.0,29.82,WNW,291,4.0,-999.0,61,-99.99,,,-99.99,,2013-02-13 14:42:00,
2013-02-13 09:52:00,36.0,24.0,29.82,WNW,291,4.0,-999.0,61,-99.99,,,-99.99,,2013-02-13 14:52:00,
2013-02-13 10:02:00,37.0,24.0,29.81,NW,312,2.0,-999.0,59,-99.99,,,-99.99,,2013-02-13 15:02:00,
2013-02-13 10:11:00,38.0,25.0,29.81,West,279,3.0,-999.0,58,-99.99,,,-99.99,,2013-02-13 15:11:00,
2013-02-13 10:21:00,38.0,25.0,29.81,West,279,3.0,-999.0,58,-99.99,,,-99.99,,2013-02-13 15:21:00,
2013-02-13 10:32:00,38.0,24.0,29.80,WNW,288,3.0,-999.0,57,-99.99,,,-99.99,,2013-02-13 15:32:00,
2013-02-13 10:42:00,38.0,24.0,29.80,WNW,288,3.0,-999.0,57,-99.99,,,-99.99,,2013-02-13 15:42:00,
2013-02-13 10:51:00,39.0,25.0,29.80,NW,308,2.0,-999.0,57,-99.99,,,-99.99,,2013-02-13 15:51:00,
2013-02-13 11:02:00,40.0,25.0,29.80,WSW,238,2.0,-999.0,55,-99.99,,,-99.99,,2013-02-13 16:02:00,
2013-02-13 11:11:00,41.0,25.0,29.79,WNW,288,2.0,-999.0,53,-99.99,,,-99.99,,2013-02-13 16:11:00,
2013-02-13 11:21:00,41.0,25.0,29.79,WNW,288,2.0,-999.0,53,-99.99,,,-99.99,,2013-02-13 16:21:00,
2013-02-13 11:32:00,41.0,25.0,29.78,SW,221,2.0,-999.0,52,-99.99,,,-99.99,,2013-02-13 16:32:00,
2013-02-13 11:42:00,41.0,25.0,29.78,SW,221,2.0,-999.0,52,-99.99,,,-99.99,,2013-02-13 16:42:00,
2013-02-13 11:51:00,42.0,25.0,29.78,SW,234,3.0,-999.0,50,-99.99,,,-99.99,,2013-02-13 16:51:00,
2013-02-13 12:02:00,42.0,25.0,29.78,West,269,0.0,-999.0,51,-99.99,,,-99.99,,2013-02-13 17:02:00,
2013-02-13 12:11:00,42.0,25.0,29.78,West,269,0.0,-999.0,51,-99.99,,,-99.99,,2013-02-13 17:11:00,
2013-02-13 12:21:00,43.0,26.0,29.78,SSW,194,2.0,-999.0,50,-99.99,,,-99.99,,2013-02-13 17:21:00,
2013-02-13 12:32:00,43.0,25.0,29.78,West,269,2.0,-999.0,48,-99.99,,,-99.99,,2013-02-13 17:32:00,
2013-02-13 12:42:00,43.0,25.0,29.78,West,269,2.0,-999.0,48,-99.99,,,-99.99,,2013-02-13 17:42:00,
2013-02-13 12:52:00,43.0,25.0,29.77,WSW,239,3.0,-999.0,49,-99.99,,,-99.99,,2013-02-13 17:52:00,
2013-02-13 13:02:00,43.0,25.0,29.77,WSW,248,3.0,-999.0,48,-99.99,,,-99.99,,2013-02-13 18:02:00,
2013-02-13 13:11:00,41.0,24.0,29.77,WNW,294,2.0,-999.0,50,-99.99,,,-99.99,,2013-02-13 18:11:00,
2013-02-13 13:23:00,41.0,24.0,29.77,WNW,294,2.0,-999.0,50,-99.99,,,-99.99,,2013-02-13 18:23:00,
2013-02-13 13:32:00,41.0,24.0,29.76,West,278,2.0,-999.0,51,-99.99,,,-99.99,,2013-02-13 18:32:00,
2013-02-13 13:42:00,41.0,24.0,29.76,West,278,2.0,-999.0,51,-99.99,,,-99.99,,2013-02-13 18:42:00,
2013-02-13 13:52:00,43.0,26.0,29.75,SSW,196,3.0,-999.0,50,-99.99,,,-99.99,,2013-02-13 18:52:00,
2013-02-13 14:01:00,44.0,26.0,29.75,WSW,242,4.0,-999.0,49,-99.99,,,-99.99,,2013-02-13 19:01:00,
2013-02-13 14:11:00,44.0,25.0,29.75,South,182,4.0,-999.0,47,-99.99,,,-99.99,,2013-02-13 19:11:00,
2013-02-13 14:21:00,44.0,25.0,29.75,South,182,4.0,-999.0,47,-99.99,,,-99.99,,2013-02-13 19:21:00,
2013-02-13 14:32:00,43.0,25.0,29.75,West,263,2.0,-999.0,48,-99.99,,,-99.99,,2013-02-13 19:32:00,
2013-02-13 14:42:00,43.0,25.0,29.75,West,263,2.0,-999.0,48,-99.99,,,-99.99,,2013-02-13 19:42:00,
2013-02-13 14:51:00,42.0,24.0,29.75,West,263,2.0,-999.0,49,-99.99,,,-99.99,,2013-02-13 19:51:00,
2013-02-13 15:02:00,42.0,24.0,29.74,West,259,2.0,-999.0,49,-99.99,,,-99.99,,2013-02-13 20:02:00,
2013-02-13 15:11:00,42.0,24.0,29.73,West,263,3.0,-999.0,49,-99.99,,,-99.99,,2013-02-13 20:11:00,
2013-02-13 15:21:00,42.0,24.0,29.73,West,263,3.0,-999.0,49,-99.99,,,-99.99,,2013-02-13 20:21:00,
2013-02-13 15:32:00,43.0,25.0,29.72,SSW,198,1.0,-999.0,48,-99.99,,,-99.99,,2013-02-13 20:32:00,
2013-02-13 15:42:00,43.0,24.0,29.72,West,259,1.0,-999.0,47,-99.99,,,-99.99,,2013-02-13 20:42:00,
2013-02-13 15:52:00,43.0,24.0,29.72,West,259,1.0,-999.0,47,-99.99,,,-99.99,,2013-02-13 20:52:00,
2013-02-13 16:02:00,43.0,25.0,29.72,SW,233,1.0,-999.0,49,-99.99,,,-99.99,,2013-02-13 21:02:00,
2013-02-13 16:11:00,43.0,25.0,29.72,SW,233,1.0,-999.0,49,-99.99,,,-99.99,,2013-02-13 21:11:00,
2013-02-13 16:21:00,42.0,23.0,29.71,WSW,244,0.0,-999.0,47,-99.99,,,-99.99,,2013-02-13 21:21:00,
2013-02-13 16:32:00,42.0,24.0,29.71,West,266,0.0,-999.0,49,-99.99,,,-99.99,,2013-02-13 21:32:00,
2013-02-13 16:42:00,41.0,24.0,29.71,West,273,0.0,-999.0,50,-99.99,,,-99.99,,2013-02-13 21:42:00,
2013-02-13 16:52:00,41.0,24.0,29.71,West,273,0.0,-999.0,50,-99.99,,,-99.99,,2013-02-13 21:52:00,
2013-02-13 17:02:00,41.0,24.0,29.72,West,271,0.0,-999.0,50,-99.99,,,-99.99,,2013-02-13 22:02:00,
2013-02-13 17:11:00,39.0,22.0,29.72,West,271,0.0,-999.0,51,-99.99,,,-99.99,,2013-02-13 22:11:00,
2013-02-13 17:21:00,39.0,22.0,29.72,West,271,0.0,-999.0,51,-99.99,,,-99.99,,2013-02-13 22:21:00,
2013-02-13 17:32:00,39.0,22.0,29.71,West,271,0.0,-999.0,51,-99.99,,,-99.99,,2013-02-13 22:32:00,
2013-02-13 17:42:00,39.0,22.0,29.71,West,271,0.0,-999.0,51,-99.99,,,-99.99,,2013-02-13 22:42:00,
2013-02-13 17:52:00,38.0,23.0,29.71,West,271,0.0,-999.0,55,-99.99,,,-99.99,,2013-02-13 22:52:00,
2013-02-13 18:01:00,38.0,23.0,29.71,West,271,0.0,-999.0,55,-99.99,,,-99.99,,2013-02-13 23:01:00,
2013-02-13 18:11:00,37.0,22.0,29.71,West,271,0.0,-999.0,55,-99.99,,,-99.99,,2013-02-13 23:11:00,
2013-02-13 18:21:00,37.0,22.0,29.71,West,271,0.0,-999.0,55,-99.99,,,-99.99,,2013-02-13 23:21:00,
2013-02-13 18:32:00,35.0,22.0,29.70,West,271,0.0,-999.0,59,-99.99,,,-99.99,,2013-02-13 23:32:00,
2013-02-13 18:42:00,35.0,22.0,29.70,West,271,0.0,-999.0,59,-99.99,,,-99.99,,2013-02-13 23:42:00,
2013-02-13 18:52:00,35.0,22.0,29.70,West,271,0.0,-999.0,59,-99.99,,,-99.99,,2013-02-13 23:52:00,
2013-02-13 19:02:00,33.0,22.0,29.71,West,271,0.0,-999.0,64,-99.99,,,-99.99,,2013-02-14 00:02:00,
2013-02-13 19:11:00,33.0,22.0,29.71,West,271,0.0,-999.0,64,-99.99,,,-99.99,,2013-02-14 00:11:00,
2013-02-13 19:22:00,32.0,21.0,29.70,West,271,0.0,-999.0,64,-99.99,,,-99.99,,2013-02-14 00:22:00,
2013-02-13 19:32:00,32.0,22.0,29.71,West,271,0.0,-999.0,67,-99.99,,,-99.99,,2013-02-14 00:32:00,
2013-02-13 19:42:00,32.0,22.0,29.71,West,271,0.0,-999.0,67,-99.99,,,-99.99,,2013-02-14 00:42:00,
2013-02-13 19:52:00,31.0,21.0,29.71,West,271,0.0,-999.0,67,-99.99,,,-99.99,,2013-02-14 00:52:00,
2013-02-13 20:01:00,31.0,21.0,29.71,West,271,0.0,-999.0,67,-99.99,,,-99.99,,2013-02-14 01:01:00,
2013-02-13 20:11:00,31.0,21.0,29.71,West,271,0.0,-999.0,67,-99.99,,,-99.99,,2013-02-14 01:11:00,
2013-02-13 20:21:00,31.0,21.0,29.70,West,271,0.0,-999.0,65,-99.99,,,-99.99,,2013-02-14 01:21:00,
2013-02-13 20:32:00,31.0,21.0,29.70,West,271,0.0,-999.0,65,-99.99,,,-99.99,,2013-02-14 01:32:00,
2013-02-13 20:42:00,31.0,21.0,29.70,West,271,0.0,-999.0,65,-99.99,,,-99.99,,2013-02-14 01:42:00,
2013-02-13 20:52:00,32.0,21.0,29.71,West,271,0.0,-999.0,63,-99.99,,,-99.99,,2013-02-14 01:52:00,
2013-02-13 21:02:00,32.0,21.0,29.71,West,271,0.0,-999.0,63,-99.99,,,-99.99,,2013-02-14 02:02:00,
2013-02-13 21:11:00,31.0,22.0,29.70,NW,304,0.0,-999.0,69,-99.99,,,-99.99,,2013-02-14 02:11:00,
2013-02-13 21:21:00,31.0,22.0,29.70,NW,304,0.0,-999.0,69,-99.99,,,-99.99,,2013-02-14 02:21:00,
2013-02-13 21:32:00,31.0,22.0,29.70,NW,306,0.0,-999.0,69,-99.99,,,-99.99,,2013-02-14 02:32:00,
2013-02-13 21:42:00,31.0,22.0,29.70,NW,306,0.0,-999.0,69,-99.99,,,-99.99,,2013-02-14 02:42:00,
2013-02-13 21:51:00,31.0,22.0,29.70,NW,306,0.0,-999.0,69,-99.99,,,-99.99,,2013-02-14 02:51:00,
2013-02-13 22:02:00,31.0,23.0,29.70,NW,306,0.0,-999.0,71,-99.99,,,-99.99,,2013-02-14 03:02:00,
2013-02-13 22:11:00,31.0,23.0,29.69,NW,306,0.0,-999.0,71,-99.99,,,-99.99,,2013-02-14 03:11:00,
2013-02-13 22:22:00,31.0,23.0,29.69,NW,306,0.0,-999.0,71,-99.99,,,-99.99,,2013-02-14 03:22:00,
2013-02-13 22:32:00,31.0,23.0,29.69,NW,306,0.0,-999.0,71,-99.99,,,-99.99,,2013-02-14 03:32:00,
2013-02-13 22:42:00,31.0,23.0,29.69,NW,306,0.0,-999.0,71,-99.99,,,-99.99,,2013-02-14 03:42:00,
2013-02-13 22:51:00,31.0,23.0,29.69,NW,306,0.0,-999.0,71,-99.99,,,-99.99,,2013-02-14 03:51:00,
2013-02-13 23:01:00,31.0,23.0,29.68,NW,306,0.0,-999.0,71,-99.99,,,-99.99,,2013-02-14 04:01:00,
2013-02-13 23:12:00,31.0,23.0,29.68,NW,306,0.0,-999.0,71,-99.99,,,-99.99,,2013-02-14 04:12:00,
2013-02-13 23:21:00,31.0,23.0,29.68,NW,306,0.0,-999.0,71,-99.99,,,-99.99,,2013-02-14 04:21:00,
2013-02-13 23:32:00,31.0,23.0,29.68,NW,306,0.0,-999.0,71,-99.99,,,-99.99,,2013-02-14 04:32:00,
2013-02-13 23:42:00,31.0,23.0,29.68,NW,306,0.0,-999.0,71,-99.99,,,-99.99,,2013-02-14 04:42:00,
2013-02-13 23:51:00,31.0,22.0,29.68,NW,306,0.0,-999.0,70,-99.99,,,-99.99,,2013-02-14 04:51:00,